Regional Weather Roundup
Issued by NWS

Home | Current Version | Previous Version | Graphics & Text | Print | Product List | Glossary On
Versions: 1 2 3 4 5 6 7 8 9 10 11 12 13 14 15 16 17 18 19 20 21 22 23 24 25 26 27 28 29 30 31 32 33 34 35 36 37 38 39 40 41 42 43 44 45 46 47 48 49 50
000
ASUS43 KMPX 270801
RWRMN
WEATHER ROUNDUP FOR MINNESOTA
NATIONAL WEATHER SERVICE TWIN CITIES/CHANHASSEN MN
300 AM CDT THU APR 27 2017


NOTE: "FAIR" INDICATES FEW OR NO CLOUDS BELOW 12,000 FEET WITH NO
SIGNIFICANT WEATHER AND/OR OBSTRUCTIONS TO VISIBILITY. N/A MEANS
CURRENT SKY AND/OR WEATHER CONDITIONS ARE NOT AVAILABLE.

MNZ060>063-068>070-270900-
   Twin Cities Metro

CITY           SKY/WX    TMP DP  RH WIND       PRES   REMARKS
TWIN CITIES    CLOUDY    35  30  82 N7        29.56S WCI  29
ST PAUL        CLOUDY    35  31  85 N8        29.56F WCI  29
CRYSTAL        CLOUDY    34  30  85 N6        29.55S FOG     WCI  29
LAKEVILLE      CLOUDY    34  34 100 N6        29.54F FOG     WCI  29
EDEN PRAIRIE   LGT SNOW  34  32  92 N5        29.55S FOG     WCI  30
SOUTH ST PAUL  CLOUDY    36  32  85 N7        29.55S
LAKE ELMO      CLOUDY    34  32  93 NW3       29.55S
$$
MNZ001>005-007-008-013>017-022>024-027-028-270900-
   Northwest Minnesota

CITY           SKY/WX    TMP DP  RH WIND       PRES   REMARKS
BEMIDJI        CLOUDY    22  18  85 N9        29.63F WCI  12
HALLOCK        CLOUDY    30  25  80 NE6       29.76F WCI  24
ROSEAU         FLURRIES  27  21  80 NE13      29.72F WCI  16
WARROAD        LGT SNOW  27  21  80 NE18      29.72F WCI  13
THIEF RVR FALL FLURRIES  24  20  84 NE10      29.71F WCI  14
CROOKSTON      CLOUDY    27  21  80 NE14      29.73F WCI  15
FOSSTON        FLURRIES  21  19  93 N13G18    29.67S WCI   9
DETROIT LAKES  CLOUDY    28  23  80 NE9       29.63S WCI  20
MOORHEAD       CLOUDY    27  25  93 N7        29.68F WCI  19
PARK RAPIDS    CLOUDY    26  19  74 N10       29.60S WCI  16
MAHNOMEN       FLURRIES  25  23  91 N3        29.65F
$$
MNZ006-009>011-018-025>026-270900-
   North Central Minnesota

CITY           SKY/WX    TMP DP  RH WIND       PRES   REMARKS
BAUDETTE       LGT SNOW  23  18  81 NE12      29.69F VSB 1   WCI  12
FLAG ISLAND    CLOUDY    27  18  69 NE14G21   29.73F WCI  15
INTL FALLS     CLOUDY    22  14  71 NE15      29.66F WCI   9
WASKISH        CLOUDY    23  18  80 NE8       29.67F WCI  14
BIG FORK       FLURRIES  21  18  86 N7        29.62F WCI  13
LONGVILLE      CLOUDY    25  21  86 N7        29.60F WCI  17
GRAND RAPIDS   CLOUDY    23  18  81 N10       29.61F WCI  12
CRANE LAKE     CLOUDY    19  16  86 N7        29.66S WCI  10
ORR            CLOUDY    19  16  86 CALM      29.59F
COOK           CLOUDY    21  18  86 N6        29.60F WCI  14
WALKER         CLOUDY    23  19  87 N6        29.61F FOG     WCI  15
$$
MNZ012-019>021-037-270900-
   Northeast Minnesota

CITY           SKY/WX    TMP DP  RH WIND       PRES   REMARKS
DULUTH         FRZ DRZL  24  22  91 N9        29.54F WCI  14
ELY            CLOUDY    19  16  86 N5        29.58F WCI  13
HIBBING        CLOUDY    21  17  84 N12       29.57F WCI   9
EVELETH        CLOUDY    22  18  82 NE6       29.58F WCI  15
DULUTH HARBOR  CLOUDY    28  25  86 N12       29.59F WCI  18
TWO HARBORS    CLOUDY    27  21  80 N6        29.54F WCI  20
SILVER BAY     CLOUDY    25  21  86 N7        29.55F WCI  17
G MARAIS ARPRT CLOUDY    18  12  79 N3        29.52F
$$
MNZ029>031-032-039>041-046>048-054>057-064-270900-
   West Central Minnesota

CITY           SKY/WX    TMP DP  RH WIND       PRES   REMARKS
FERGUS FALLS   CLOUDY    28  25  86 N8        29.64S WCI  20
WHEATON        CLOUDY    28  25  86 NW14      29.67S WCI  17
MORRIS         CLOUDY    30  28  93 NW13      29.61S FOG     WCI  20
ALEXANDRIA     CLOUDY    29  25  85 N8        29.60S WCI  21
ELBOW LAKE     CLOUDY    29  26  89 N7        29.62S WCI  22
WADENA         MIX PCPN  25  23  93 N6        29.60S WCI  18
GLENWOOD       CLOUDY    28  27  93 N7        29.60S WCI  21
APPLETON       CLOUDY    30  27  86 NW13      29.63S WCI  20
BENSON         LGT SNOW  32  28  86 N10       29.62F WCI  24
ORTONVILLE     CLOUDY    28  25  86 NW12      29.64S WCI  18
MADISON        CLOUDY    32  30  93 NW13G18   29.64S WCI  22
WILLMAR        CLOUDY    32  30  93 NW8       29.60F WCI  25
$$
MNZ033>034-036-042>043-049>051-058-059-270900-
   Central Minnesota

CITY           SKY/WX    TMP DP  RH WIND       PRES   REMARKS
ST CLOUD       CLOUDY    31  29  92 NW8       29.57S WCI  23
SAUK CENTRE    CLOUDY    29  26  88 N8        29.59F WCI  21
PAYNESVILLE    CLOUDY    31  31 100 NW6       29.59S WCI  25
AITKIN         CLOUDY    28  21  74 N8        29.57F WCI  20
PINE RIVER     CLOUDY    25  23  93 N5        29.63F WCI  19
BRAINERD       CLOUDY    27  24  89 N8        29.58F WCI  19
STAPLES        LGT SNOW  27  25  93 N6        29.59F WCI  20
LONG PRAIRIE   CLOUDY    28  27  93 CALM      29.59S
LITTLE FALLS   CLOUDY    30  28  93 NW5       29.58F WCI  25
LITCHFIELD     CLOUDY    32  30  93 NW10      29.58F WCI  24
BUFFALO        CLOUDY    32  31  95 NW7       29.58S FOG     WCI  26
MAPLE LAKE     CLOUDY    32  32  99 NW8       29.57F FOG     WCI  25
HUTCHINSON     CLOUDY    32  31  95 NW8       29.58F WCI  25
$$
MNZ037-044-045-052-053-270900-
   East Central Minnesota

CITY           SKY/WX    TMP DP  RH WIND       PRES   REMARKS
PRINCETON      CLOUDY    34  30  86 NW5       29.57S WCI  30
MORA           FLURRIES  32  28  86 N3        29.58S
CAMBRIDGE      CLOUDY    34  30  86 N5        29.55R WCI  30
RUSH CITY      CLOUDY    32  28  87 N7        29.56S WCI  25
MOOSE LAKE     CLOUDY    28  23  80 N9        29.56S WCI  20
HINCKLEY       CLOUDY    32  28  86 N8        29.56F WCI  25
CLOQUET        CLOUDY    25  21  86 N9        29.56F WCI  15
MCGREGOR       CLOUDY    27  23  86 N7        29.58F WCI  19
$$
MNZ071>073-080-081-089-090-097-098-270900-
   Southwest Minnesota

CITY           SKY/WX    TMP DP  RH WIND       PRES   REMARKS
MONTEVIDEO     CLOUDY    30  30 100 N9        29.62F WCI  22
GRANITE FALLS  CLOUDY    32  30  92 NW15      29.63F WCI  22
CANBY          CLOUDY    31  28  88 W13G18    29.65S WCI  21
MARSHALL       MIX PCPN  29  28  96 NW21      29.62F FOG     WCI  16
REDWOOD FALLS  CLOUDY    31  28  89 NW12      29.59F WCI  22
OLIVIA         CLOUDY    32  30  93 NW10      29.58F FOG     WCI  24
PIPESTONE      CLOUDY    28  21  74 NW14G22   29.61F WCI  17
WINDOM         PTCLDY    30  28  93 NW13      29.58F WCI  20
WORTHINGTON    CLOUDY    28  26  92 NW17G23   29.60F WCI  16
JACKSON        CLOUDY    30  28  93 NW15G22   29.59S WCI  19
TRACY          CLOUDY    30  29  96 NW13      29.61F WCI  20
SLAYTON        CLOUDY    28  26  95 NW14      29.61F WCI  16
$$
MNZ065>067-074>077-082>085-091>093-270900-
   South Central Minnesota

CITY           SKY/WX    TMP DP  RH WIND       PRES   REMARKS
MANKATO        MIX PCPN  33  31  92 NW10      29.57F WCI  25
NEW ULM        CLOUDY    32  30  93 NW13      29.58F WCI  22
ST JAMES       CLOUDY    30  30 100 NW14G21   29.59F WCI  20
FAIRMONT       CLOUDY    31  29  92 NW17      29.58F WCI  19
GLENCOE        CLOUDY    33  33  99 NW8       29.57F FOG     WCI  26
FARIBAULT      LGT RAIN  34  34 100 NW7       29.54F WCI  28
OWATONNA       DRIZZLE   34  32  93 NW16      29.52F WCI  23
WASECA         CLOUDY    32  32 100 NW9       29.56F FOG     WCI  24
ALBERT LEA     CLOUDY    34  30  86 NW10      29.51F FOG     WCI  26
$$
MNZ078>079-086>088-094>096-270900-
   Southeast Minnesota

CITY           SKY/WX    TMP DP  RH WIND       PRES   REMARKS
ROCHESTER      CLOUDY    35  33  92 NW15      29.48F WCI  25
RED WING       CLOUDY    37  30  75 N7        29.50F
STANTON        CLOUDY    36  33  88 NW8       29.52F FOG
DODGE CENTER   CLOUDY    34  34 100 NW12      29.50F FOG     WCI  25
WINONA         CLOUDY    36  34  93 N7        29.49F
AUSTIN         CLOUDY    34  32  93 NW13G18   29.51F WCI  25
PRESTON        CLOUDY    35  32  90 NW10      29.48F WCI  27
$$
ABBREVIATIONS USED IN REMARKS
   TC - TEMPERATURES IN CELSIUS
  WCI - WIND CHILL INDEX
   HX - HEAT INDEX
  VSB - VISIBILITY
$$




USA.gov is the U.S. government's official web portal to all federal, state and local government web resources and services.